Regional Weather Roundup
Issued by NWS Portland, ME

Home | Current Version | Previous Version | Text Only | Print | Product List | Glossary On
Versions: 1 2 3 4 5 6 7 8 9 10 11 12 13 14 15 16 17 18 19 20 21 22 23 24 25 26 27 28 29 30 31 32 33 34 35 36 37 38 39 40 41 42 43 44 45 46 47 48 49 50
993
ASUS41 KGYX 221805
RWRGYX
WEATHER ROUNDUP FOR MAINE AND NEW HAMPSHIRE
NATIONAL WEATHER SERVICE GRAY ME
200 PM EDT FRI SEP 22 2017

MEZ002-005-006-010-012-015-018-020-021-024-026-027-029-221900-
MAINE

CITY           SKY/WX    TMP DP  RH WIND       PRES   REMARKS
PORTLAND       CLOUDY    68  49  50 NE14      30.08F
6HR MIN TEMP:  56; 6HR MAX TEMP:  69;

SANFORD        CLOUDY    68  52  56 NE15G24   30.07F
BAR HARBOR     CLOUDY    70  47  43 NE9       30.09F
WISCASSET      CLOUDY    70  48  45 E9        30.10S
6HR MIN TEMP:  57; 6HR MAX TEMP:  71;

ROCKLAND       CLOUDY    67  52  58 NE8       30.09F
FRYEBURG       MOSUNNY   74  39  28 NE9       30.11F
6HR MIN TEMP:  58; 6HR MAX TEMP:  75;

LEWISTONAUBURN   N/A     69  47  45 NE12      30.10F
AUGUSTA        PTSUNNY   71  48  43 N14       30.11F
6HR MIN TEMP:  54; 6HR MAX TEMP:  71;

WATERVILLE     MOSUNNY   71  48  43 NE10      30.09F
BANGOR         MOSUNNY   76  43  30 NE9       30.11F
6HR MIN TEMP:  53; 6HR MAX TEMP:  76;

GREENVILLE       N/A     69  44  40 VRB6      30.14F
6HR MIN TEMP:  53; 6HR MAX TEMP:  70;

MILLINOCKET    SUNNY     72  38  29 NE9       30.15F
6HR MIN TEMP:  50; 6HR MAX TEMP:  72;

HOULTON        SUNNY     73  42  32 N7        30.14F
6HR MIN TEMP:  45; 6HR MAX TEMP:  73;

PRESQUE ISLE   SUNNY     70  46  42 CALM      30.16F
6HR MIN TEMP:  41; 6HR MAX TEMP:  70;

FRENCHVILLE    SUNNY     70  47  43 SE7       30.16F
6HR MIN TEMP:  49; 6HR MAX TEMP:  70;

CARIBOU        SUNNY     72  47  40 SE3       30.15F
6HR MIN TEMP:  48; 6HR MAX TEMP:  73;

$$

NHZ002-005-008-009-011-012-014-221900-
NEW HAMPSHIRE

CITY           SKY/WX    TMP DP  RH WIND       PRES   REMARKS
PORTSMOUTH     PTSUNNY   67  54  61 N15G25    30.03F
ROCHESTER      CLOUDY    68  50  52 N9G21     30.07F
6HR MIN TEMP:  59; 6HR MAX TEMP:  68;

NASHUA         CLOUDY    70  55  59 N13G20    30.04F
MANCHESTER     CLOUDY    71  51  49 NE18G28   30.04F
6HR MIN TEMP:  62; 6HR MAX TEMP:  72;

CONCORD        CLOUDY    69  49  48 N9        30.08F
6HR MIN TEMP:  62; 6HR MAX TEMP:  70;

LACONIA        CLOUDY    69  45  41 NE10      30.09F
PLYMOUTH       CLOUDY    73  48  40 CALM      30.09S
BERLIN         SUNNY     76  41  28 CALM      30.12F
6HR MIN TEMP:  43; 6HR MAX TEMP:  76;

WHITEFIELD     SUNNY     78  36  21 E13       30.11F
6HR MIN TEMP:  51; 6HR MAX TEMP:  78;

JAFFREY        CLOUDY    68  51  54 N10G23    30.07F
6HR MIN TEMP:  60; 6HR MAX TEMP:  69;

KEENE          CLOUDY    72  50  45 NE10      30.07F
LEBANON        MOSUNNY   74  53  48 VRB3      30.09F
6HR MIN TEMP:  51; 6HR MAX TEMP:  75;

MT WASHINGTON  NOT AVBL
$$

VTZ005-007-008-221900-
VERMONT

CITY           SKY/WX    TMP DP  RH WIND       PRES   REMARKS
ST JOHNSBURY     N/A     77  39  25 MISG      30.09F
MONTPELIER     SUNNY     73  50  44 VRB5      30.16F
BURLINGTON     MOSUNNY   75  54  47 NW9       30.11F
$$

MAZ007-012-024-CTZ003-RIZ002-NYZ038-NYZ072-221900-
SOUTHERN NEW ENGLAND AND NY

CITY           SKY/WX    TMP DP  RH WIND       PRES   REMARKS
BOSTON         LGT RAIN  59  56  89 N24G36    30.01S FOG
WORCESTER      CLOUDY    65  51  60 N13G32    30.02F
NANTUCKET      LGT RAIN  63  63 100 N29G38    29.79S FOG
PROVIDENCE     LGT RAIN  60  59  96 N20G29    29.96F
HARTFORD       PTSUNNY   76  52  43 N23G31    30.00F
ALBANY         MOSUNNY   77  49  37 N12       30.07F
NEW YORK CITY  MOSUNNY   79  56  45 N16       29.95F
$$

ANZ081-ANZ082-ANZ150-NHZ014-MEZ023>029-221900-
COASTAL MARINE OBSERVATIONS

STATION/POSITION TIME  TEMP    WIND        PRES    WAVE
                       AIR SEA DIR/SP/G            HT/PER
                 (UTC) (F)     (DEG/KT/KT) (MB)    (FT/S)
MOUNT DESERT ROC 1800   56      20/ 23/ 24 1018.4F
MATINICUS ROCK   1700   57      50/ 20/ 22 1018.1F
ISLE OF SHOALS   1700   59      20/ 27/ 29 1016.8R
JEFFREYS LEDGE   1736      62                N/A    12/11
GEORGES BANK BUO 1650   73 71              1009.1   13/10
$$

.............KEY..............
   WCI - WIND CHILL
   TC  - TEMPERATURE IN CELSIUS
   VSB - VISIBILITY IN MILES
   HX  - HEAT INDEX
   FAIR- INDICATES FEW OR NO CLOUDS BELOW 12,000 FT, WITH NO
         SIGNIFICANT WEATHER AND/OR OBSTRUCTIONS TO VISIBILITY.






USA.gov is the U.S. government's official web portal to all federal, state and local government web resources and services.